Time,TemperatureF,DewpointF,PressureIn,WindDirection,WindDirectionDegrees,WindSpeedMPH,WindSpeedGustMPH,Humidity,HourlyPrecipIn,Conditions,Clouds,dailyrainin,SoftwareType,DateUTC
2013-06-12 00:01:00,68.4,61.3,29.77,West,277,0.0,2.0,78,0.00,,OVC055,0.00,VWS V14.01,2013-06-12 04:01:00,
2013-06-12 00:02:00,68.3,61.2,29.77,WNW,293,1.0,5.0,78,0.00,,CLR,0.00,VWS V14.01,2013-06-12 04:02:00,
2013-06-12 00:03:00,68.3,61.2,29.77,WNW,283,2.0,2.0,78,0.00,,CLR,0.00,VWS V14.01,2013-06-12 04:03:00,
2013-06-12 00:08:00,68.3,61.2,29.77,West,264,0.0,3.0,78,0.00,,CLR,0.00,VWS V14.01,2013-06-12 04:08:00,
2013-06-12 00:13:00,68.3,61.2,29.77,WSW,255,0.0,0.0,78,0.00,,CLR,0.00,VWS V14.01,2013-06-12 04:13:00,
2013-06-12 00:18:00,68.2,61.1,29.77,WSW,256,4.0,5.0,78,0.00,,CLR,0.00,VWS V14.01,2013-06-12 04:18:00,
2013-06-12 00:23:00,68.3,61.2,29.77,WNW,300,1.0,2.0,78,0.00,,CLR,0.00,VWS V14.01,2013-06-12 04:23:00,
2013-06-12 00:28:00,68.3,61.2,29.77,West,273,0.0,3.0,78,0.00,,CLR,0.00,VWS V14.01,2013-06-12 04:28:00,
2013-06-12 00:33:00,68.2,61.5,29.77,NW,311,1.0,2.0,79,0.00,,CLR,0.00,VWS V14.01,2013-06-12 04:33:00,
2013-06-12 00:38:00,68.1,61.3,29.77,West,280,0.0,3.0,79,0.00,,CLR,0.00,VWS V14.01,2013-06-12 04:38:00,
2013-06-12 00:43:00,67.9,61.2,29.77,West,259,1.0,1.0,79,0.00,,CLR,0.00,VWS V14.01,2013-06-12 04:43:00,
2013-06-12 00:48:00,67.8,61.4,29.77,West,266,1.0,1.0,80,0.00,,CLR,0.00,VWS V14.01,2013-06-12 04:48:00,
2013-06-12 00:53:00,67.6,61.2,29.77,West,264,0.0,0.0,80,0.00,,CLR,0.00,VWS V14.01,2013-06-12 04:53:00,
2013-06-12 00:58:00,67.3,61.3,29.77,West,261,0.0,1.0,81,0.00,,CLR,0.00,VWS V14.01,2013-06-12 04:58:00,
2013-06-12 01:04:00,67.1,61.1,29.76,WSW,248,0.0,0.0,81,0.00,,CLR,0.00,VWS V14.01,2013-06-12 05:04:00,
2013-06-12 01:09:00,67.0,61.3,29.76,WSW,255,0.0,0.0,82,0.00,,CLR,0.00,VWS V14.01,2013-06-12 05:09:00,
2013-06-12 01:14:00,66.9,61.2,29.77,West,260,0.0,1.0,82,0.00,,CLR,0.00,VWS V14.01,2013-06-12 05:14:00,
2013-06-12 01:19:00,66.7,61.0,29.77,WNW,285,0.0,0.0,82,0.00,,CLR,0.00,VWS V14.01,2013-06-12 05:19:00,
2013-06-12 01:24:00,66.5,61.2,29.76,WNW,287,0.0,1.0,83,0.00,,CLR,0.00,VWS V14.01,2013-06-12 05:24:00,
2013-06-12 01:29:00,66.5,61.2,29.76,West,259,0.0,1.0,83,0.00,,CLR,0.00,VWS V14.01,2013-06-12 05:29:00,
2013-06-12 01:34:00,66.4,61.1,29.76,WNW,288,0.0,1.0,83,0.00,,CLR,0.00,VWS V14.01,2013-06-12 05:34:00,
2013-06-12 01:39:00,66.2,61.2,29.76,West,280,0.0,0.0,84,0.00,,CLR,0.00,VWS V14.01,2013-06-12 05:39:00,
2013-06-12 01:44:00,66.0,61.0,29.77,WNW,287,1.0,3.0,84,0.00,,CLR,0.00,VWS V14.01,2013-06-12 05:44:00,
2013-06-12 01:50:00,65.8,61.2,29.77,West,267,1.0,1.0,85,0.00,,CLR,0.00,VWS V14.01,2013-06-12 05:50:00,
2013-06-12 01:55:00,65.6,61.0,29.77,West,274,1.0,3.0,85,0.00,,CLR,0.00,VWS V14.01,2013-06-12 05:55:00,
2013-06-12 02:00:00,65.7,61.1,29.77,WSW,252,0.0,7.0,85,0.00,,CLR,0.00,VWS V14.01,2013-06-12 06:00:00,
2013-06-12 02:05:00,65.7,61.1,29.77,West,259,4.0,5.0,85,0.00,,CLR,0.00,VWS V14.01,2013-06-12 06:05:00,
2013-06-12 02:10:00,66.0,61.4,29.77,WNW,293,1.0,3.0,85,0.00,,CLR,0.00,VWS V14.01,2013-06-12 06:10:00,
2013-06-12 02:15:00,66.1,61.5,29.77,WNW,290,3.0,7.0,85,0.00,,CLR,0.00,VWS V14.01,2013-06-12 06:15:00,
2013-06-12 02:20:00,66.4,61.4,29.77,WNW,291,0.0,4.0,84,0.00,,CLR,0.00,VWS V14.01,2013-06-12 06:20:00,
2013-06-12 02:25:00,66.6,61.6,29.77,West,266,1.0,4.0,84,0.00,,CLR,0.00,VWS V14.01,2013-06-12 06:25:00,
2013-06-12 02:30:00,66.7,61.7,29.77,WNW,295,1.0,5.0,84,0.00,,CLR,0.00,VWS V14.01,2013-06-12 06:30:00,
2013-06-12 02:35:00,66.9,61.6,29.77,WNW,282,2.0,7.0,83,0.00,,CLR,0.00,VWS V14.01,2013-06-12 06:35:00,
2013-06-12 02:40:00,66.9,61.6,29.77,WNW,288,1.0,3.0,83,0.00,,CLR,0.00,VWS V14.01,2013-06-12 06:40:00,
2013-06-12 02:45:00,66.7,61.4,29.77,NW,319,1.0,3.0,83,0.00,,CLR,0.00,VWS V14.01,2013-06-12 06:45:00,
2013-06-12 02:50:00,66.5,61.5,29.77,WNW,285,1.0,3.0,84,0.00,,CLR,0.00,VWS V14.01,2013-06-12 06:50:00,
2013-06-12 02:55:00,66.1,61.5,29.77,West,267,1.0,1.0,85,0.00,,CLR,0.00,VWS V14.01,2013-06-12 06:55:00,
2013-06-12 03:01:00,65.7,61.1,29.77,WSW,250,0.0,2.0,85,0.00,,CLR,0.00,VWS V14.01,2013-06-12 07:01:00,
2013-06-12 03:06:00,65.4,61.1,29.77,WSW,253,0.0,1.0,86,0.00,,CLR,0.00,VWS V14.01,2013-06-12 07:06:00,
2013-06-12 03:11:00,65.0,61.0,29.78,WSW,250,0.0,1.0,87,0.00,,CLR,0.00,VWS V14.01,2013-06-12 07:11:00,
2013-06-12 03:16:00,64.9,60.9,29.78,WNW,283,0.0,1.0,87,0.00,,CLR,0.00,VWS V14.01,2013-06-12 07:16:00,
2013-06-12 03:21:00,64.9,60.9,29.78,WSW,255,0.0,1.0,87,0.00,,CLR,0.00,VWS V14.01,2013-06-12 07:21:00,
2013-06-12 03:26:00,64.8,61.2,29.78,WNW,285,0.0,1.0,88,0.00,,CLR,0.00,VWS V14.01,2013-06-12 07:26:00,
2013-06-12 03:31:00,64.6,61.0,29.78,WNW,287,0.0,1.0,88,0.00,,CLR,0.00,VWS V14.01,2013-06-12 07:31:00,
2013-06-12 03:36:00,64.7,61.1,29.78,WNW,290,1.0,3.0,88,0.00,,CLR,0.00,VWS V14.01,2013-06-12 07:36:00,
2013-06-12 03:41:00,64.9,60.9,29.78,WSW,253,0.0,3.0,87,0.00,,CLR,0.00,VWS V14.01,2013-06-12 07:41:00,
2013-06-12 03:47:00,64.7,61.1,29.78,WSW,242,1.0,1.0,88,0.00,,CLR,0.00,VWS V14.01,2013-06-12 07:47:00,
2013-06-12 03:52:00,64.5,60.9,29.78,West,270,1.0,2.0,88,0.00,,CLR,0.00,VWS V14.01,2013-06-12 07:52:00,
2013-06-12 03:57:00,64.4,60.8,29.78,WSW,250,0.0,1.0,88,0.00,,CLR,0.00,VWS V14.01,2013-06-12 07:57:00,
2013-06-12 04:02:00,64.2,60.9,29.78,West,260,0.0,1.0,89,0.00,,CLR,0.00,VWS V14.01,2013-06-12 08:02:00,
2013-06-12 04:07:00,64.0,60.7,29.77,West,259,1.0,1.0,89,0.00,,CLR,0.00,VWS V14.01,2013-06-12 08:07:00,
2013-06-12 04:12:00,64.0,60.7,29.77,West,260,0.0,1.0,89,0.00,,CLR,0.00,VWS V14.01,2013-06-12 08:12:00,
2013-06-12 04:17:00,63.9,60.9,29.77,West,260,0.0,0.0,90,0.00,,CLR,0.00,VWS V14.01,2013-06-12 08:17:00,
2013-06-12 04:22:00,64.1,61.1,29.77,West,259,0.0,1.0,90,0.00,,CLR,0.00,VWS V14.01,2013-06-12 08:22:00,
2013-06-12 04:27:00,64.2,60.9,29.78,WSW,250,0.0,2.0,89,0.00,,CLR,0.00,VWS V14.01,2013-06-12 08:27:00,
2013-06-12 04:32:00,64.2,60.9,29.78,West,260,0.0,1.0,89,0.00,,CLR,0.00,VWS V14.01,2013-06-12 08:32:00,
2013-06-12 04:37:00,64.3,61.0,29.78,NW,304,0.0,1.0,89,0.00,,CLR,0.00,VWS V14.01,2013-06-12 08:37:00,
2013-06-12 04:42:00,64.3,61.0,29.77,WNW,284,0.0,1.0,89,0.00,,CLR,0.00,VWS V14.01,2013-06-12 08:42:00,
2013-06-12 04:47:00,64.3,61.0,29.78,West,276,0.0,1.0,89,0.00,,CLR,0.00,VWS V14.01,2013-06-12 08:47:00,
2013-06-12 04:52:00,64.0,60.7,29.78,West,266,0.0,1.0,89,0.00,,CLR,0.00,VWS V14.01,2013-06-12 08:52:00,
2013-06-12 04:57:00,63.7,60.7,29.78,West,262,0.0,0.0,90,0.00,,CLR,0.00,VWS V14.01,2013-06-12 08:57:00,
2013-06-12 05:02:00,63.5,60.5,29.78,West,263,0.0,1.0,90,0.00,,CLR,0.00,VWS V14.01,2013-06-12 09:02:00,
2013-06-12 05:07:00,63.3,60.6,29.78,West,263,0.0,0.0,91,0.00,,CLR,0.00,VWS V14.01,2013-06-12 09:07:00,
2013-06-12 05:12:00,63.2,60.5,29.78,West,263,0.0,1.0,91,0.00,,CLR,0.00,VWS V14.01,2013-06-12 09:12:00,
2013-06-12 05:17:00,63.3,60.6,29.78,WNW,303,0.0,2.0,91,0.00,,CLR,0.00,VWS V14.01,2013-06-12 09:17:00,
2013-06-12 05:22:00,63.6,60.6,29.78,WNW,282,0.0,1.0,90,0.00,,CLR,0.00,VWS V14.01,2013-06-12 09:22:00,
2013-06-12 05:27:00,63.6,60.6,29.79,WSW,250,0.0,1.0,90,0.00,,CLR,0.00,VWS V14.01,2013-06-12 09:27:00,
2013-06-12 05:32:00,63.4,60.4,29.79,WSW,250,0.0,0.0,90,0.00,,CLR,0.00,VWS V14.01,2013-06-12 09:32:00,
2013-06-12 05:37:00,63.4,60.7,29.79,West,266,0.0,1.0,91,0.00,,CLR,0.00,VWS V14.01,2013-06-12 09:37:00,
2013-06-12 05:42:00,63.3,60.6,29.79,West,269,0.0,1.0,91,0.00,,CLR,0.00,VWS V14.01,2013-06-12 09:42:00,
2013-06-12 05:47:00,63.2,60.5,29.79,West,268,0.0,0.0,91,0.00,,CLR,0.00,VWS V14.01,2013-06-12 09:47:00,
2013-06-12 05:52:00,63.1,60.4,29.80,West,270,0.0,1.0,91,0.00,,CLR,0.00,VWS V14.01,2013-06-12 09:52:00,
2013-06-12 05:57:00,63.3,60.6,29.80,West,278,1.0,2.0,91,0.00,,CLR,0.00,VWS V14.01,2013-06-12 09:57:00,
2013-06-12 06:03:00,63.4,60.7,29.80,West,267,0.0,1.0,91,0.00,,,0.00,VWS V14.01,2013-06-12 10:03:00,
2013-06-12 06:07:00,63.2,60.5,29.80,WSW,252,0.0,0.0,91,0.00,,,0.00,VWS V14.01,2013-06-12 10:07:00,
2013-06-12 06:13:00,63.2,60.5,29.80,WSW,239,0.0,0.0,91,0.00,,,0.00,VWS V14.01,2013-06-12 10:13:00,
2013-06-12 06:18:00,63.4,60.7,29.80,WSW,257,0.0,1.0,91,0.00,,,0.00,VWS V14.01,2013-06-12 10:18:00,
2013-06-12 06:23:00,63.7,61.0,29.80,WNW,295,0.0,1.0,91,0.00,,,0.00,VWS V14.01,2013-06-12 10:23:00,
2013-06-12 06:28:00,64.0,61.0,29.80,WNW,285,0.0,1.0,90,0.00,,,0.00,VWS V14.01,2013-06-12 10:28:00,
2013-06-12 06:33:00,64.1,61.1,29.81,WNW,294,1.0,2.0,90,0.00,,,0.00,VWS V14.01,2013-06-12 10:33:00,
2013-06-12 06:38:00,64.5,61.2,29.80,WNW,293,0.0,1.0,89,0.00,,,0.00,VWS V14.01,2013-06-12 10:38:00,
2013-06-12 06:43:00,64.7,61.4,29.81,WNW,293,0.0,1.0,89,0.00,,,0.00,VWS V14.01,2013-06-12 10:43:00,
2013-06-12 06:49:00,64.9,61.6,29.81,WSW,248,0.0,1.0,89,0.00,,,0.00,VWS V14.01,2013-06-12 10:49:00,
2013-06-12 06:54:00,65.1,61.8,29.81,WSW,249,0.0,0.0,89,0.00,,,0.00,VWS V14.01,2013-06-12 10:54:00,
2013-06-12 06:59:00,65.4,62.1,29.80,West,271,0.0,1.0,89,0.00,,,0.00,VWS V14.01,2013-06-12 10:59:00,
2013-06-12 07:04:00,65.8,62.2,29.81,WNW,290,0.0,1.0,88,0.00,,,0.00,VWS V14.01,2013-06-12 11:04:00,
2013-06-12 07:09:00,66.2,62.5,29.81,WNW,290,1.0,1.0,88,0.00,,,0.00,VWS V14.01,2013-06-12 11:09:00,
2013-06-12 07:14:00,66.7,62.7,29.81,WNW,297,0.0,4.0,87,0.00,,,0.00,VWS V14.01,2013-06-12 11:14:00,
2013-06-12 07:19:00,67.1,62.8,29.82,WNW,291,2.0,5.0,86,0.00,,,0.00,VWS V14.01,2013-06-12 11:19:00,
2013-06-12 07:24:00,67.3,63.0,29.82,West,270,1.0,3.0,86,0.00,,,0.00,VWS V14.01,2013-06-12 11:24:00,
2013-06-12 07:29:00,67.5,63.2,29.82,West,261,2.0,4.0,86,0.00,,,0.00,VWS V14.01,2013-06-12 11:29:00,
2013-06-12 07:35:00,67.6,63.3,29.82,West,274,0.0,2.0,86,0.00,,,0.00,VWS V14.01,2013-06-12 11:35:00,
2013-06-12 07:40:00,67.8,63.1,29.81,WSW,255,2.0,3.0,85,0.00,,,0.00,VWS V14.01,2013-06-12 11:40:00,
2013-06-12 07:45:00,68.1,63.4,29.82,WSW,246,0.0,3.0,85,0.00,,,0.00,VWS V14.01,2013-06-12 11:45:00,
2013-06-12 07:50:00,68.6,63.6,29.82,WNW,294,1.0,3.0,84,0.00,,,0.00,VWS V14.01,2013-06-12 11:50:00,
2013-06-12 07:55:00,68.8,63.4,29.82,NW,316,2.0,9.0,83,0.00,,,0.00,VWS V14.01,2013-06-12 11:55:00,
2013-06-12 08:00:00,69.1,63.4,29.81,WNW,291,5.0,7.0,82,0.00,,,0.00,VWS V14.01,2013-06-12 12:00:00,
2013-06-12 08:05:00,69.4,63.3,29.81,WNW,287,0.0,5.0,81,0.00,,FEW002,0.00,VWS V14.01,2013-06-12 12:05:00,
2013-06-12 08:10:00,69.7,62.9,29.82,West,275,6.0,8.0,79,0.00,,FEW002,0.00,VWS V14.01,2013-06-12 12:10:00,
2013-06-12 08:15:00,70.1,62.9,29.82,NW,309,4.0,6.0,78,0.00,,FEW002,0.00,VWS V14.01,2013-06-12 12:15:00,
2013-06-12 08:20:00,70.3,63.1,29.82,West,269,6.0,6.0,78,0.00,,FEW002,0.00,VWS V14.01,2013-06-12 12:20:00,
2013-06-12 08:25:00,70.5,63.0,29.82,West,273,3.0,7.0,77,0.00,,FEW002,0.00,VWS V14.01,2013-06-12 12:25:00,
2013-06-12 08:31:00,70.7,62.8,29.82,WNW,295,6.0,9.0,76,0.00,,FEW002,0.00,VWS V14.01,2013-06-12 12:31:00,
2013-06-12 08:36:00,70.7,62.4,29.82,NW,305,8.0,11.0,75,0.00,,FEW002,0.00,VWS V14.01,2013-06-12 12:36:00,
2013-06-12 08:41:00,70.7,62.4,29.82,NW,321,4.0,8.0,75,0.00,,FEW002,0.00,VWS V14.01,2013-06-12 12:41:00,
2013-06-12 08:46:00,70.7,61.6,29.82,NW,311,6.0,10.0,73,0.00,,FEW002,0.00,VWS V14.01,2013-06-12 12:46:00,
2013-06-12 08:51:00,70.9,62.6,29.82,NW,314,3.0,7.0,75,0.00,,FEW002,0.00,VWS V14.01,2013-06-12 12:51:00,
2013-06-12 08:56:00,71.0,61.9,29.82,WNW,300,5.0,14.0,73,0.00,,FEW002,0.00,VWS V14.01,2013-06-12 12:56:00,
2013-06-12 09:01:00,71.0,61.9,29.82,WNW,301,2.0,12.0,73,0.00,,CLR,0.00,VWS V14.01,2013-06-12 13:01:00,
2013-06-12 09:06:00,71.4,62.7,29.82,NW,307,6.0,9.0,74,0.00,,CLR,0.00,VWS V14.01,2013-06-12 13:06:00,
2013-06-12 09:12:00,71.7,63.0,29.82,NW,319,4.0,6.0,74,0.00,,CLR,0.00,VWS V14.01,2013-06-12 13:12:00,
2013-06-12 09:17:00,71.3,62.2,29.82,WNW,294,3.0,11.0,73,0.00,,CLR,0.00,VWS V14.01,2013-06-12 13:17:00,
2013-06-12 09:22:00,71.8,63.1,29.82,WNW,291,5.0,7.0,74,0.00,,CLR,0.00,VWS V14.01,2013-06-12 13:22:00,
2013-06-12 09:27:00,71.7,62.6,29.82,NW,316,4.0,6.0,73,0.00,,CLR,0.00,VWS V14.01,2013-06-12 13:27:00,
2013-06-12 09:32:00,72.0,62.5,29.82,WNW,285,5.0,9.0,72,0.00,,CLR,0.00,VWS V14.01,2013-06-12 13:32:00,
2013-06-12 09:37:00,72.4,62.9,29.82,WNW,293,2.0,8.0,72,0.00,,CLR,0.00,VWS V14.01,2013-06-12 13:37:00,
2013-06-12 09:42:00,72.5,63.0,29.82,NW,311,4.0,11.0,72,0.00,,CLR,0.00,VWS V14.01,2013-06-12 13:42:00,
2013-06-12 09:47:00,72.6,62.7,29.82,WNW,289,3.0,9.0,71,0.00,,CLR,0.00,VWS V14.01,2013-06-12 13:47:00,
2013-06-12 09:52:00,72.4,61.7,29.82,NNW,337,4.0,12.0,69,0.00,,CLR,0.00,VWS V14.01,2013-06-12 13:52:00,
2013-06-12 09:57:00,72.6,62.3,29.81,NW,307,3.0,9.0,70,0.00,,CLR,0.00,VWS V14.01,2013-06-12 13:57:00,
2013-06-12 10:02:00,72.7,62.4,29.81,NW,304,4.0,11.0,70,0.00,,CLR,0.00,VWS V14.01,2013-06-12 14:02:00,
2013-06-12 10:07:00,72.5,62.6,29.81,WNW,298,2.0,10.0,71,0.00,,CLR,0.00,VWS V14.01,2013-06-12 14:07:00,
2013-06-12 10:12:00,72.8,62.9,29.81,NNW,341,3.0,8.0,71,0.00,,CLR,0.00,VWS V14.01,2013-06-12 14:12:00,
2013-06-12 10:17:00,73.1,62.7,29.81,WSW,256,3.0,6.0,70,0.00,,CLR,0.00,VWS V14.01,2013-06-12 14:17:00,
2013-06-12 10:22:00,73.0,62.2,29.81,WNW,300,7.0,9.0,69,0.00,,CLR,0.00,VWS V14.01,2013-06-12 14:22:00,
2013-06-12 10:27:00,73.1,61.9,29.81,WNW,293,6.0,11.0,68,0.00,,CLR,0.00,VWS V14.01,2013-06-12 14:27:00,
2013-06-12 10:32:00,73.7,63.7,29.81,WNW,290,3.0,7.0,71,0.00,,BKN090,0.00,VWS V14.01,2013-06-12 14:32:00,
2013-06-12 10:37:00,73.6,62.4,29.81,NW,308,5.0,9.0,68,0.00,,BKN090,0.00,VWS V14.01,2013-06-12 14:37:00,
2013-06-12 10:42:00,73.6,62.8,29.81,West,271,3.0,7.0,69,0.00,,BKN090,0.00,VWS V14.01,2013-06-12 14:42:00,
2013-06-12 10:47:00,73.1,62.3,29.81,West,280,2.0,10.0,69,0.00,,BKN090,0.00,VWS V14.01,2013-06-12 14:47:00,
2013-06-12 10:52:00,73.6,63.2,29.81,WSW,255,6.0,8.0,70,0.00,,BKN090,0.00,VWS V14.01,2013-06-12 14:52:00,
2013-06-12 10:57:00,73.9,61.8,29.81,NW,326,3.0,13.0,66,0.00,,BKN090,0.00,VWS V14.01,2013-06-12 14:57:00,
2013-06-12 11:02:00,74.4,62.3,29.81,NW,312,6.0,10.0,66,0.00,,BKN090,0.00,VWS V14.01,2013-06-12 15:02:00,
2013-06-12 11:07:00,74.5,62.8,29.81,NW,312,7.0,7.0,67,0.00,,BKN090,0.00,VWS V14.01,2013-06-12 15:07:00,
2013-06-12 11:13:00,74.7,62.2,29.81,WNW,284,3.0,7.0,65,0.00,,BKN090,0.00,VWS V14.01,2013-06-12 15:13:00,
2013-06-12 11:18:00,75.0,62.5,29.81,West,276,5.0,8.0,65,0.00,,BKN090,0.00,VWS V14.01,2013-06-12 15:18:00,
2013-06-12 11:23:00,74.9,62.8,29.81,NW,312,7.0,7.0,66,0.00,,BKN090,0.00,VWS V14.01,2013-06-12 15:23:00,
2013-06-12 11:28:00,75.3,63.2,29.81,SW,221,2.0,5.0,66,0.00,,BKN090,0.00,VWS V14.01,2013-06-12 15:28:00,
2013-06-12 11:33:00,75.8,63.2,29.82,NNW,348,7.0,8.0,65,0.00,,BKN090,0.00,VWS V14.01,2013-06-12 15:33:00,
2013-06-12 11:38:00,76.0,63.4,29.82,WNW,302,1.0,1.0,65,0.00,,BKN090,0.00,VWS V14.01,2013-06-12 15:38:00,
2013-06-12 11:43:00,76.6,64.4,29.82,WSW,255,2.0,4.0,66,0.00,,BKN090,0.00,VWS V14.01,2013-06-12 15:43:00,
2013-06-12 11:48:00,76.2,64.0,29.82,West,266,1.0,7.0,66,0.00,,BKN090,0.00,VWS V14.01,2013-06-12 15:48:00,
2013-06-12 11:54:00,76.1,64.4,29.81,WNW,286,2.0,3.0,67,0.00,,BKN090,0.00,VWS V14.01,2013-06-12 15:54:00,
2013-06-12 11:59:00,76.2,64.0,29.82,WSW,243,6.0,8.0,66,0.00,,BKN090,0.00,VWS V14.01,2013-06-12 15:59:00,
2013-06-12 12:04:00,75.9,62.0,29.82,NW,305,7.0,11.0,62,0.00,,BKN090,0.00,VWS V14.01,2013-06-12 16:04:00,
2013-06-12 12:09:00,75.7,62.2,29.82,WNW,282,9.0,10.0,63,0.00,,BKN090,0.00,VWS V14.01,2013-06-12 16:09:00,
2013-06-12 12:14:00,76.1,62.2,29.82,WNW,303,9.0,11.0,62,0.00,,BKN090,0.00,VWS V14.01,2013-06-12 16:14:00,
2013-06-12 12:19:00,76.2,63.1,29.82,NNW,341,8.0,11.0,64,0.00,,BKN090,0.00,VWS V14.01,2013-06-12 16:19:00,
2013-06-12 12:24:00,76.2,62.2,29.82,NW,314,8.0,9.0,62,0.00,,BKN090,0.00,VWS V14.01,2013-06-12 16:24:00,
2013-06-12 12:29:00,76.5,63.4,29.83,WNW,300,5.0,9.0,64,0.00,,BKN090,0.00,VWS V14.01,2013-06-12 16:29:00,
2013-06-12 12:34:00,76.5,63.0,29.82,NNE,14,2.0,6.0,63,0.00,,BKN090,0.00,VWS V14.01,2013-06-12 16:34:00,
2013-06-12 12:39:00,76.9,63.4,29.82,NW,316,3.0,6.0,63,0.00,,BKN090,0.00,VWS V14.01,2013-06-12 16:39:00,
2013-06-12 12:44:00,76.8,63.3,29.82,NW,325,2.0,6.0,63,0.00,,BKN090,0.00,VWS V14.01,2013-06-12 16:44:00,
2013-06-12 12:49:00,76.9,62.4,29.82,NNW,332,4.0,9.0,61,0.00,,BKN090,0.00,VWS V14.01,2013-06-12 16:49:00,
2013-06-12 12:54:00,77.6,64.0,29.82,NW,314,5.0,8.0,63,0.00,,BKN090,0.00,VWS V14.01,2013-06-12 16:54:00,
2013-06-12 12:59:00,77.8,63.8,29.82,NW,311,1.0,8.0,62,0.00,,BKN090,0.00,VWS V14.01,2013-06-12 16:59:00,
2013-06-12 13:04:00,78.1,64.0,29.82,NW,326,3.0,7.0,62,0.00,,CLR,0.00,VWS V14.01,2013-06-12 17:04:00,
2013-06-12 13:10:00,77.9,63.4,29.82,NNE,30,4.0,6.0,61,0.00,,CLR,0.00,VWS V14.01,2013-06-12 17:10:00,
2013-06-12 13:15:00,77.9,62.4,29.82,WNW,300,5.0,9.0,59,0.00,,CLR,0.00,VWS V14.01,2013-06-12 17:15:00,
2013-06-12 13:20:00,77.8,63.3,29.82,WNW,288,3.0,9.0,61,0.00,,CLR,0.00,VWS V14.01,2013-06-12 17:20:00,
2013-06-12 13:25:00,78.0,63.9,29.82,NW,317,4.0,10.0,62,0.00,,CLR,0.00,VWS V14.01,2013-06-12 17:25:00,
2013-06-12 13:30:00,78.2,63.2,29.82,NW,315,9.0,12.0,60,0.00,,CLR,0.00,VWS V14.01,2013-06-12 17:30:00,
2013-06-12 13:35:00,78.1,63.6,29.82,West,278,8.0,10.0,61,0.00,,CLR,0.00,VWS V14.01,2013-06-12 17:35:00,
2013-06-12 13:40:00,78.3,63.3,29.82,NW,314,5.0,8.0,60,0.00,,CLR,0.00,VWS V14.01,2013-06-12 17:40:00,
2013-06-12 13:45:00,78.5,63.5,29.82,WNW,285,7.0,12.0,60,0.00,,CLR,0.00,VWS V14.01,2013-06-12 17:45:00,
2013-06-12 13:50:00,78.3,64.7,29.82,NW,319,4.0,9.0,63,0.00,,CLR,0.00,VWS V14.01,2013-06-12 17:50:00,
2013-06-12 13:55:00,78.1,63.1,29.82,West,268,5.0,6.0,60,0.00,,CLR,0.00,VWS V14.01,2013-06-12 17:55:00,
2013-06-12 14:00:00,77.8,63.3,29.82,WNW,302,2.0,8.0,61,0.00,,CLR,0.00,VWS V14.01,2013-06-12 18:00:00,
2013-06-12 14:05:00,77.2,62.7,29.81,NW,316,4.0,10.0,61,0.00,,FEW044,0.00,VWS V14.01,2013-06-12 18:05:00,
2013-06-12 14:10:00,77.1,63.1,29.81,NW,310,3.0,5.0,62,0.00,,FEW044,0.00,VWS V14.01,2013-06-12 18:10:00,
2013-06-12 14:16:00,78.1,64.5,29.80,West,278,5.0,8.0,63,0.00,,FEW044,0.00,VWS V14.01,2013-06-12 18:16:00,
2013-06-12 14:21:00,78.5,64.0,29.80,NW,311,0.0,7.0,61,0.00,,FEW044,0.00,VWS V14.01,2013-06-12 18:21:00,
2013-06-12 14:26:00,79.2,65.1,29.80,WNW,293,1.0,6.0,62,0.00,,FEW044,0.00,VWS V14.01,2013-06-12 18:26:00,
2013-06-12 14:31:00,79.6,64.5,29.80,NW,304,2.0,7.0,60,0.00,,FEW044,0.00,VWS V14.01,2013-06-12 18:31:00,
2013-06-12 14:36:00,79.8,64.2,29.80,WNW,296,2.0,6.0,59,0.00,,FEW044,0.00,VWS V14.01,2013-06-12 18:36:00,
2013-06-12 14:41:00,79.2,64.1,29.80,NW,308,3.0,7.0,60,0.00,,FEW044,0.00,VWS V14.01,2013-06-12 18:41:00,
2013-06-12 14:46:00,79.7,64.6,29.80,North,349,3.0,7.0,60,0.00,,FEW044,0.00,VWS V14.01,2013-06-12 18:46:00,
2013-06-12 14:51:00,79.6,64.5,29.80,WNW,285,3.0,5.0,60,0.00,,FEW044,0.00,VWS V14.01,2013-06-12 18:51:00,
2013-06-12 14:56:00,79.7,64.1,29.79,WNW,296,0.0,4.0,59,0.00,,FEW044,0.00,VWS V14.01,2013-06-12 18:56:00,
2013-06-12 15:01:00,79.6,64.0,29.79,NNW,328,4.0,6.0,59,0.00,,FEW048,0.00,VWS V14.01,2013-06-12 19:01:00,
2013-06-12 15:06:00,79.6,64.0,29.79,WNW,286,2.0,8.0,59,0.00,,FEW048,0.00,VWS V14.01,2013-06-12 19:06:00,
2013-06-12 15:12:00,79.6,64.0,29.79,NW,316,4.0,7.0,59,0.00,,FEW048,0.00,VWS V14.01,2013-06-12 19:12:00,
2013-06-12 15:17:00,79.8,63.2,29.79,WNW,302,3.0,7.0,57,0.00,,FEW048,0.00,VWS V14.01,2013-06-12 19:17:00,
2013-06-12 15:22:00,79.7,63.6,29.79,WNW,283,1.0,6.0,58,0.00,,FEW048,0.00,VWS V14.01,2013-06-12 19:22:00,
2013-06-12 15:27:00,79.9,62.8,29.78,NNW,328,4.0,5.0,56,0.00,,FEW048,0.00,VWS V14.01,2013-06-12 19:27:00,
2013-06-12 15:32:00,79.8,63.2,29.79,NW,310,7.0,9.0,57,0.00,,FEW048,0.00,VWS V14.01,2013-06-12 19:32:00,
2013-06-12 15:37:00,80.0,62.9,29.79,NW,321,3.0,8.0,56,0.00,,FEW048,0.00,VWS V14.01,2013-06-12 19:37:00,
2013-06-12 15:42:00,79.9,63.3,29.78,NW,321,5.0,5.0,57,0.00,,FEW048,0.00,VWS V14.01,2013-06-12 19:42:00,
2013-06-12 15:47:00,80.0,62.9,29.79,WNW,298,6.0,10.0,56,0.00,,FEW048,0.00,VWS V14.01,2013-06-12 19:47:00,
2013-06-12 15:52:00,79.9,62.3,29.79,NW,305,10.0,11.0,55,0.00,,FEW048,0.00,VWS V14.01,2013-06-12 19:52:00,
2013-06-12 15:57:00,79.4,62.3,29.79,NW,304,6.0,10.0,56,0.00,,FEW048,0.00,VWS V14.01,2013-06-12 19:57:00,
2013-06-12 16:02:00,79.3,62.8,29.79,WNW,282,0.0,9.0,57,0.00,,FEW050,0.00,VWS V14.01,2013-06-12 20:02:00,
2013-06-12 16:08:00,80.3,64.2,29.78,NW,308,5.0,9.0,58,0.00,,FEW050,0.00,VWS V14.01,2013-06-12 20:08:00,
2013-06-12 16:13:00,80.1,64.5,29.78,WNW,287,1.0,2.0,59,0.00,,FEW050,0.00,VWS V14.01,2013-06-12 20:13:00,
2013-06-12 16:18:00,80.6,64.5,29.79,NW,326,2.0,3.0,58,0.00,,FEW050,0.00,VWS V14.01,2013-06-12 20:18:00,
2013-06-12 16:23:00,80.3,63.7,29.78,West,271,1.0,1.0,57,0.00,,FEW050,0.00,VWS V14.01,2013-06-12 20:23:00,
2013-06-12 16:28:00,79.8,63.7,29.78,West,280,3.0,4.0,58,0.00,,FEW050,0.00,VWS V14.01,2013-06-12 20:28:00,
2013-06-12 16:33:00,79.3,64.2,29.79,NW,311,0.0,2.0,60,0.00,,FEW050,0.00,VWS V14.01,2013-06-12 20:33:00,
2013-06-12 16:38:00,79.0,64.4,29.79,WNW,296,2.0,3.0,61,0.00,,FEW050,0.00,VWS V14.01,2013-06-12 20:38:00,
2013-06-12 16:43:00,78.9,63.8,29.78,NW,309,2.0,2.0,60,0.00,,FEW050,0.00,VWS V14.01,2013-06-12 20:43:00,
2013-06-12 16:48:00,78.7,64.6,29.78,WSW,250,0.0,3.0,62,0.00,,FEW050,0.00,VWS V14.01,2013-06-12 20:48:00,
2013-06-12 16:53:00,78.7,63.7,29.78,WNW,293,2.0,4.0,60,0.00,,FEW050,0.00,VWS V14.01,2013-06-12 20:53:00,
2013-06-12 16:58:00,78.8,64.7,29.79,NW,316,1.0,5.0,62,0.00,,FEW050,0.00,VWS V14.01,2013-06-12 20:58:00,
2013-06-12 17:03:00,78.9,64.3,29.78,West,281,1.0,6.0,61,0.00,,SCT060,0.00,VWS V14.01,2013-06-12 21:03:00,
2013-06-12 17:08:00,79.0,64.4,29.78,NW,321,4.0,5.0,61,0.00,,SCT060,0.00,VWS V14.01,2013-06-12 21:08:00,
2013-06-12 17:13:00,79.3,65.2,29.78,NW,309,0.0,2.0,62,0.00,,SCT060,0.00,VWS V14.01,2013-06-12 21:13:00,
2013-06-12 17:18:00,79.5,64.9,29.78,WNW,302,6.0,6.0,61,0.00,,SCT060,0.00,VWS V14.01,2013-06-12 21:18:00,
2013-06-12 17:24:00,79.6,64.5,29.78,WNW,283,1.0,1.0,60,0.00,,SCT060,0.00,VWS V14.01,2013-06-12 21:24:00,
2013-06-12 17:29:00,80.2,65.5,29.78,WSW,250,0.0,1.0,61,0.00,,SCT060,0.00,VWS V14.01,2013-06-12 21:29:00,
2013-06-12 17:34:00,80.3,65.2,29.78,West,280,1.0,2.0,60,0.00,,SCT060,0.00,VWS V14.01,2013-06-12 21:34:00,
2013-06-12 17:39:00,79.9,63.8,29.78,NW,305,5.0,6.0,58,0.00,,SCT060,0.00,VWS V14.01,2013-06-12 21:39:00,
2013-06-12 17:44:00,79.7,64.6,29.77,NW,322,0.0,5.0,60,0.00,,SCT060,0.00,VWS V14.01,2013-06-12 21:44:00,
2013-06-12 17:49:00,79.4,64.3,29.77,West,266,2.0,3.0,60,0.00,,SCT060,0.00,VWS V14.01,2013-06-12 21:49:00,
2013-06-12 17:54:00,79.1,65.0,29.77,WNW,302,3.0,3.0,62,0.00,,SCT060,0.00,VWS V14.01,2013-06-12 21:54:00,
2013-06-12 17:59:00,78.9,64.3,29.77,West,281,1.0,3.0,61,0.00,,SCT060,0.00,VWS V14.01,2013-06-12 21:59:00,
2013-06-12 18:04:00,79.5,65.3,29.77,West,270,0.0,2.0,62,0.00,,CLR,0.00,VWS V14.01,2013-06-12 22:04:00,
2013-06-12 18:09:00,79.9,64.8,29.77,WNW,297,2.0,2.0,60,0.00,,CLR,0.00,VWS V14.01,2013-06-12 22:09:00,
2013-06-12 18:14:00,79.9,64.3,29.76,NW,316,0.0,0.0,59,0.00,,CLR,0.00,VWS V14.01,2013-06-12 22:14:00,
2013-06-12 18:20:00,79.7,64.1,29.76,NW,314,2.0,3.0,59,0.00,,CLR,0.00,VWS V14.01,2013-06-12 22:20:00,
2013-06-12 18:25:00,79.4,64.3,29.76,WNW,291,1.0,2.0,60,0.00,,CLR,0.00,VWS V14.01,2013-06-12 22:25:00,
2013-06-12 18:30:00,79.2,64.6,29.76,NW,314,0.0,0.0,61,0.00,,CLR,0.00,VWS V14.01,2013-06-12 22:30:00,
2013-06-12 18:35:00,79.5,64.4,29.76,NW,314,0.0,0.0,60,0.00,,CLR,0.00,VWS V14.01,2013-06-12 22:35:00,
2013-06-12 18:40:00,79.5,64.4,29.76,WNW,300,0.0,1.0,60,0.00,,CLR,0.00,VWS V14.01,2013-06-12 22:40:00,
2013-06-12 18:45:00,79.3,65.2,29.76,West,274,1.0,1.0,62,0.00,,CLR,0.00,VWS V14.01,2013-06-12 22:45:00,
2013-06-12 18:50:00,78.8,65.2,29.76,West,274,0.0,0.0,63,0.00,,CLR,0.00,VWS V14.01,2013-06-12 22:50:00,
2013-06-12 18:55:00,78.8,65.2,29.77,West,275,0.0,1.0,63,0.00,,CLR,0.00,VWS V14.01,2013-06-12 22:55:00,
2013-06-12 19:00:00,78.6,65.0,29.77,West,276,0.0,0.0,63,0.00,,CLR,0.00,VWS V14.01,2013-06-12 23:00:00,
2013-06-12 19:05:00,78.5,64.9,29.77,West,275,0.0,0.0,63,0.00,,CLR,0.00,VWS V14.01,2013-06-12 23:05:00,
2013-06-12 19:10:00,78.4,64.8,29.77,West,276,0.0,0.0,63,0.00,,CLR,0.00,VWS V14.01,2013-06-12 23:10:00,
2013-06-12 19:15:00,78.5,67.5,29.78,West,275,0.0,0.0,69,0.00,,CLR,0.00,VWS V14.01,2013-06-12 23:15:00,
2013-06-12 19:21:00,78.4,68.2,29.79,West,275,0.0,0.0,71,0.00,,CLR,0.00,VWS V14.01,2013-06-12 23:21:00,
2013-06-12 19:26:00,78.1,66.3,29.80,West,276,0.0,0.0,67,0.00,,CLR,0.00,VWS V14.01,2013-06-12 23:26:00,
2013-06-12 19:31:00,77.8,66.0,29.80,West,275,0.0,0.0,67,0.00,,CLR,0.00,VWS V14.01,2013-06-12 23:31:00,
2013-06-12 19:36:00,77.8,66.0,29.80,West,276,0.0,0.0,67,0.00,,CLR,0.00,VWS V14.01,2013-06-12 23:36:00,
2013-06-12 19:41:00,77.2,69.1,29.80,SE,139,0.0,1.0,76,0.00,,CLR,0.00,VWS V14.01,2013-06-12 23:41:00,
2013-06-12 19:46:00,75.6,69.0,29.79,East,94,0.0,1.0,80,0.00,,CLR,0.00,VWS V14.01,2013-06-12 23:46:00,
2013-06-12 19:51:00,74.6,68.8,29.80,East,99,0.0,1.0,82,0.00,,CLR,0.00,VWS V14.01,2013-06-12 23:51:00,
2013-06-12 19:56:00,74.3,68.1,29.80,East,98,0.0,1.0,81,0.00,,CLR,0.00,VWS V14.01,2013-06-12 23:56:00,
2013-06-12 20:01:00,74.3,65.9,29.80,East,86,0.0,2.0,75,0.00,,CLR,0.00,VWS V14.01,2013-06-13 00:01:00,
2013-06-12 20:06:00,74.3,65.5,29.79,ENE,76,0.0,1.0,74,0.00,,CLR,0.00,VWS V14.01,2013-06-13 00:06:00,
2013-06-12 20:11:00,74.2,65.8,29.79,East,94,1.0,4.0,75,0.00,,CLR,0.00,VWS V14.01,2013-06-13 00:11:00,
2013-06-12 20:16:00,73.6,65.2,29.79,East,88,1.0,2.0,75,0.00,,CLR,0.00,VWS V14.01,2013-06-13 00:16:00,
2013-06-12 20:21:00,73.3,64.9,29.79,East,99,1.0,2.0,75,0.00,,CLR,0.00,VWS V14.01,2013-06-13 00:21:00,
2013-06-12 20:27:00,73.2,65.2,29.78,East,99,0.0,1.0,76,0.00,,CLR,0.00,VWS V14.01,2013-06-13 00:27:00,
2013-06-12 20:32:00,73.2,65.2,29.78,East,97,1.0,2.0,76,0.00,,CLR,0.00,VWS V14.01,2013-06-13 00:32:00,
2013-06-12 20:37:00,73.1,65.1,29.78,East,98,1.0,2.0,76,0.00,,CLR,0.00,VWS V14.01,2013-06-13 00:37:00,
2013-06-12 20:42:00,73.1,64.7,29.78,ESE,115,2.0,3.0,75,0.00,,CLR,0.00,VWS V14.01,2013-06-13 00:42:00,
2013-06-12 20:47:00,73.1,64.7,29.78,East,92,2.0,5.0,75,0.00,,CLR,0.00,VWS V14.01,2013-06-13 00:47:00,
2013-06-12 20:52:00,72.9,64.9,29.78,ESE,110,4.0,4.0,76,0.00,,CLR,0.00,VWS V14.01,2013-06-13 00:52:00,
2013-06-12 20:57:00,72.7,64.3,29.78,ESE,103,2.0,5.0,75,0.00,,CLR,0.00,VWS V14.01,2013-06-13 00:57:00,
2013-06-12 21:02:00,72.7,63.5,29.78,East,89,2.0,6.0,73,0.00,,SCT100,0.00,VWS V14.01,2013-06-13 01:02:00,
2013-06-12 21:07:00,72.8,63.7,29.78,ESE,102,3.0,5.0,73,0.00,,SCT100,0.00,VWS V14.01,2013-06-13 01:07:00,
2013-06-12 21:12:00,72.8,63.3,29.78,ESE,105,2.0,4.0,72,0.00,,SCT100,0.00,VWS V14.01,2013-06-13 01:12:00,
2013-06-12 21:18:00,72.6,63.1,29.78,ESE,106,1.0,1.0,72,0.00,,SCT100,0.00,VWS V14.01,2013-06-13 01:18:00,
2013-06-12 21:23:00,72.4,62.9,29.78,ESE,106,2.0,2.0,72,0.00,,SCT100,0.00,VWS V14.01,2013-06-13 01:23:00,
2013-06-12 21:28:00,72.4,62.9,29.79,SW,224,0.0,0.0,72,0.00,,SCT100,0.00,VWS V14.01,2013-06-13 01:28:00,
2013-06-12 21:33:00,72.3,63.2,29.79,WSW,239,0.0,0.0,73,0.00,,SCT100,0.00,VWS V14.01,2013-06-13 01:33:00,
2013-06-12 21:38:00,72.2,63.8,29.79,WSW,239,0.0,0.0,75,0.00,,SCT100,0.00,VWS V14.01,2013-06-13 01:38:00,
2013-06-12 21:43:00,72.0,64.0,29.79,WSW,239,0.0,0.0,76,0.00,,SCT100,0.00,VWS V14.01,2013-06-13 01:43:00,
2013-06-12 21:48:00,71.6,63.3,29.79,WSW,239,0.0,0.0,75,0.00,,SCT100,0.00,VWS V14.01,2013-06-13 01:48:00,
2013-06-12 21:53:00,71.4,63.1,29.79,WSW,240,0.0,0.0,75,0.00,,SCT100,0.00,VWS V14.01,2013-06-13 01:53:00,
2013-06-12 21:58:00,71.1,62.8,29.79,NW,319,0.0,0.0,75,0.00,,SCT100,0.00,VWS V14.01,2013-06-13 01:58:00,
2013-06-12 22:03:00,71.1,62.0,29.79,North,9,1.0,3.0,73,0.00,,FEW060,0.00,VWS V14.01,2013-06-13 02:03:00,
2013-06-12 22:08:00,71.3,61.8,29.79,ESE,110,2.0,2.0,72,0.00,,FEW060,0.00,VWS V14.01,2013-06-13 02:08:00,
2013-06-12 22:13:00,71.4,61.1,29.79,ESE,119,1.0,1.0,70,0.00,,FEW060,0.00,VWS V14.01,2013-06-13 02:13:00,
2013-06-12 22:18:00,71.5,62.0,29.80,ESE,117,0.0,0.0,72,0.00,,FEW060,0.00,VWS V14.01,2013-06-13 02:18:00,
2013-06-12 22:23:00,71.2,62.5,29.80,West,267,1.0,1.0,74,0.00,,FEW060,0.00,VWS V14.01,2013-06-13 02:23:00,
2013-06-12 22:28:00,70.9,62.2,29.80,WNW,291,0.0,0.0,74,0.00,,FEW060,0.00,VWS V14.01,2013-06-13 02:28:00,
2013-06-12 22:33:00,70.8,62.1,29.80,WNW,290,0.0,0.0,74,0.00,,FEW060,0.00,VWS V14.01,2013-06-13 02:33:00,
2013-06-12 22:39:00,70.6,62.3,29.80,WNW,291,0.0,0.0,75,0.00,,FEW060,0.00,VWS V14.01,2013-06-13 02:39:00,
2013-06-12 22:44:00,70.3,62.0,29.80,WNW,292,0.0,0.0,75,0.00,,FEW060,0.00,VWS V14.01,2013-06-13 02:44:00,
2013-06-12 22:49:00,69.9,62.0,29.80,WNW,293,0.0,0.0,76,0.00,,FEW060,0.00,VWS V14.01,2013-06-13 02:49:00,
2013-06-12 22:54:00,69.5,62.0,29.80,North,6,0.0,0.0,77,0.00,,FEW060,0.00,VWS V14.01,2013-06-13 02:54:00,
2013-06-12 22:59:00,69.2,61.7,29.80,North,6,0.0,0.0,77,0.00,,FEW060,0.00,VWS V14.01,2013-06-13 02:59:00,
2013-06-12 23:04:00,69.2,62.1,29.80,North,6,0.0,0.0,78,0.00,,CLR,0.00,VWS V14.01,2013-06-13 03:04:00,
2013-06-12 23:09:00,69.2,61.7,29.80,NW,315,0.0,0.0,77,0.00,,CLR,0.00,VWS V14.01,2013-06-13 03:09:00,
2013-06-12 23:14:00,69.2,62.1,29.80,NW,315,0.0,0.0,78,0.00,,CLR,0.00,VWS V14.01,2013-06-13 03:14:00,
2013-06-12 23:19:00,69.0,62.2,29.80,NW,305,0.0,0.0,79,0.00,,CLR,0.00,VWS V14.01,2013-06-13 03:19:00,
2013-06-12 23:24:00,68.9,62.1,29.80,NW,305,0.0,0.0,79,0.00,,CLR,0.00,VWS V14.01,2013-06-13 03:24:00,
2013-06-12 23:30:00,68.7,61.6,29.79,NW,304,0.0,0.0,78,0.00,,CLR,0.00,VWS V14.01,2013-06-13 03:30:00,
2013-06-12 23:34:00,68.7,61.6,29.79,ESE,120,0.0,1.0,78,0.00,,CLR,0.00,VWS V14.01,2013-06-13 03:34:00,
2013-06-12 23:40:00,68.8,61.7,29.79,SW,233,0.0,1.0,78,0.00,,CLR,0.00,VWS V14.01,2013-06-13 03:40:00,
2013-06-12 23:45:00,68.9,61.0,29.79,WSW,242,0.0,1.0,76,0.00,,CLR,0.00,VWS V14.01,2013-06-13 03:45:00,
2013-06-12 23:50:00,69.0,61.1,29.79,WSW,250,0.0,1.0,76,0.00,,CLR,0.00,VWS V14.01,2013-06-13 03:50:00,
2013-06-12 23:55:00,69.1,61.2,29.79,WSW,243,0.0,1.0,76,0.00,,CLR,0.00,VWS V14.01,2013-06-13 03:55:00,